Location: Chemineaux
(45.2457°N, 1.9427°E)
Time: 01:43:49
(UTC+00:00)

Daily predictions for brighter satellites

Satellite Brightness Start Highest point End
(mag) Time Altitude Azimuth Time Altitude Azimuth Time Altitude Azimuth
ADEOS II 4.4 02:16:13 10° NNE 02:17:29 18° NNE 02:17:29 18° NNE
USA 234 4.3 02:20:04 10° ESE 02:24:10 39° E 02:24:10 39° E
Lacrosse 5 4.1 02:40:09 21° E 02:40:09 21° E 02:42:00 10° E
Cosmos 2082 Rocket 4.2 02:42:36 20° N 02:42:36 20° N 02:44:41 10° N
Cosmos 2333 Rocket 4.3 02:39:49 10° N 02:44:26 24° NE 02:49:02 10° E
Cosmos 2219 Rocket 4.2 02:54:49 10° N 02:59:29 25° NE 03:04:09 10° ESE
CZ-2C R/B 4.1 02:58:17 10° NE 03:02:02 27° E 03:02:02 27° E
USA 238 DEB 4.3 03:06:29 10° NW 03:13:38 60° NE 03:21:04 10° SE
USA 238 4.3 03:06:36 10° NNW 03:13:44 59° NE 03:21:10 10° SE
ATLAS 5 CENTAUR R/B 4.1 03:19:17 12° ESE 03:19:45 12° ESE 03:21:31 10° E
S3M 4.0 03:21:13 75° ESE 03:21:27 76° E 03:27:38 10° NNE
ARIANE 5 R/B 3.6 03:20:23 10° N 03:23:22 36° N 03:23:22 36° N
Cosmos 1745 Rocket 3.9 03:19:39 10° N 03:26:01 87° E 03:26:32 76° SSE
USA 267 3.4 03:28:46 10° NE 03:35:09 57° NNW 03:35:57 54° NW
Cosmos 2322 4.3 03:31:15 10° NNW 03:36:51 55° ENE 03:42:23 10° SE
Cosmos 1709 Rocket 4.4 03:31:23 10° N 03:37:45 64° E 03:44:03 10° SSE
H-2A R/B 4.2 03:38:31 10° ESE 03:41:56 25° ENE 03:45:19 10° N
NOSS 3-2 (A) 4.0 03:34:52 10° NW 03:42:29 87° SW 03:51:04 10° SSE
Spot 4 Rocket 4.2 03:42:01 10° N 03:46:28 61° NNW 03:46:28 61° NNW
COSMOS 2487 4.3 03:50:12 28° NE 03:50:12 28° NE 03:51:59 10° NNE
Cosmos 2344 3.4 03:46:42 53° SW 03:48:43 82° NW 03:56:41 10° NE
Cosmos 1833 4.0 03:48:28 77° SW 03:48:52 84° WNW 03:54:32 10° NNE
Cosmos 1386 Rocket 4.4 03:46:39 10° NNW 03:52:57 63° W 03:53:42 58° SW
CENTAUR R/B 3.3 03:45:22 10° NW 03:53:32 81° NE 04:02:28 10° SE
Cosmos 2251 Rocket 3.5 03:53:53 58° S 03:54:56 81° ESE 04:00:21 10° NNE
ISS -2.2 04:00:41 35° NE 04:00:41 35° NE 04:03:17 10° E
Cosmos 2360 Rocket 3.9 04:04:24 17° S 04:04:24 17° S 04:05:43 10° S
ADEOS II 4.3 03:57:42 10° NNW 03:58:26 12° NNW 03:58:26 12° NNW
IDEFIX/ARIANE 42P 4.1 03:57:54 10° N 04:00:31 22° NW 04:00:31 22° NW
Meteor 2-17 Rocket 4.4 03:57:03 10° N 04:03:09 82° E 04:09:12 10° S
ALOS 2.9 03:59:04 10° NNE 04:03:40 56° E 04:07:02 18° S
PAYLOAD A 4.0 03:58:36 10° N 04:03:55 73° WNW 04:05:03 55° SW
CZ-2C R/B 4.1 04:02:09 10° N 04:04:14 29° N 04:04:14 29° N
Cosmos 2237 Rocket 4.2 04:02:28 10° N 04:07:18 27° NE 04:12:05 10° ESE
Cosmos 2333 4.1 04:02:11 10° NNW 04:07:59 80° WSW 04:13:46 10° SSE
USA 234 3.3 04:03:12 10° SSE 04:09:32 51° SW 04:11:34 39° W
CZ-4C R/B 2.5 04:10:13 30° S 04:12:31 56° ESE 04:18:09 10° NE
Cosmos 883 Rocket 4.3 04:11:11 31° SSW 04:14:14 69° W 04:20:21 10° N
USA 276 2.9 04:16:02 49° NE 04:16:02 49° NE 04:18:35 10° ENE
PSLV R/B 3.4 04:11:56 10° N 04:16:20 79° WNW 04:17:21 52° SSW
NOSS 3-4 (A) 3.8 04:16:30 20° SSW 04:20:30 60° ESE 04:26:37 10° NE
Lacrosse 5 1.8 04:19:24 47° W 04:20:34 61° SW 04:25:32 10° SSE
NOSS 3-4 (C) 3.8 04:16:34 20° SSW 04:20:37 59° ESE 04:26:43 10° NE
NOSS 3-2 (C) 4.0 04:16:54 10° NW 04:24:30 79° SW 04:33:06 10° SSE
GPS 2-04 Rocket1 4.4 04:26:32 18° S 04:26:32 18° S 04:29:00 10° SE
Cosmos 2221 4.3 04:30:19 18° NW 04:30:19 18° NW 04:31:59 10° NNW
Cosmos 2333 Rocket 2.1 04:23:30 10° NNW 04:29:14 68° WSW 04:34:57 10° SSE
Cosmos 1484 Rocket 2.5 04:29:33 10° NNE 04:33:16 88° WNW 04:35:27 24° SSW
Cosmos 1437 Rocket 3.8 04:29:39 10° S 04:33:34 49° E 04:37:28 10° NNE
Cosmos 1805 Rocket 3.7 04:29:34 10° NNW 04:33:54 50° W 04:38:11 10° SSW
ATLAS 2AS CENTAUR R/B 3.6 04:28:01 10° SSW 04:35:42 58° ESE 04:43:20 10° NE
Landsat 5 3.3 04:32:21 10° S 04:36:06 53° W 04:39:56 10° NNW
SJ-6F 4.3 04:32:37 10° N 04:36:50 81° WNW 04:40:19 15° SSW
Cosmos 2315 Rocket 4.1 04:34:41 15° SSW 04:39:40 54° WNW 04:45:45 10° N
CZ-4B R/B 3.3 04:37:37 10° SE 04:40:21 30° ENE 04:43:05 10° N
CZ-2C R/B 2.9 04:36:18 10° N 04:40:34 34° WNW 04:41:25 32° W
COSMO-SKYMED 1 3.5 04:37:06 10° SSE 04:41:17 50° ENE 04:45:30 10° N
Cosmos 2297 Rocket 4.0 04:36:25 10° SSE 04:41:19 32° ESE 04:46:16 10° NE
Cosmos 1782 3.4 04:39:39 10° S 04:43:32 58° E 04:47:26 10° NNE
Cosmos 2219 Rocket 2.2 04:38:16 10° NNW 04:43:51 60° WSW 04:49:24 10° S
Cosmos 1606 3.8 04:47:57 27° WNW 04:47:57 27° WNW 04:50:58 10° NNW
CBERS 1 LM4 rocket 4.2 04:43:37 10° N 04:48:23 73° WNW 04:53:05 10° SSW
Cosmos 1140 Rocket 3.6 04:43:48 10° SSW 04:48:59 78° ESE 04:54:11 10° NNE
Sich 1 3.3 04:46:20 10° NNW 04:50:31 43° W 04:54:40 10° SSW
Meteor 1-26 Rocket 4.4 04:46:30 10° S 04:52:13 82° E 04:58:09 10° NNE
Cosmos 1980 4.3 04:46:56 10° NNW 04:52:33 58° ENE 04:58:08 10° SE
METEOR-M 4.1 04:49:05 10° N 04:54:24 69° WNW 04:59:41 10° SSW
Cosmos 1666 Rocket 3.5 04:53:24 10° NNW 04:57:43 60° W 05:02:03 10° S
Cosmos 2074 Rocket 3.9 04:52:22 10° N 04:58:36 83° W 05:04:48 10° S
MOS 1 Rocket 3.2 04:55:59 10° SSE 05:00:23 87° E 05:05:04 10° NNW
COSMOS 2428 2.8 04:54:57 10° NW 05:00:30 53° WSW 05:06:01 10° S
Cosmos 1023 Rocket 4.4 04:55:31 10° SSW 05:00:43 81° WNW 05:05:55 10° NNE
SeaSat 1 2.5 04:55:52 10° SSE 05:00:48 84° ENE 05:05:46 10° NNW
BREEZE M DEB (TANK) 2.7 04:59:34 21° WNW 05:01:22 67° NNE 05:08:28 10° ESE
BREEZE-M DEB (TANK) 3.3 05:00:37 19° WNW 05:03:24 41° N 05:05:48 10° ENE
CZ-4C R/B 4.4 05:04:29 20° WNW 05:04:29 20° WNW 05:06:16 10° NW
ATLAS 5 CENTAUR R/B 1.4 05:00:50 19° SW 05:03:33 67° NW 05:08:00 10° NE
USA 238 DEB 4.4 04:57:49 10° NW 05:04:23 37° WSW 05:11:10 10° S
USA 238 4.3 04:57:55 10° NW 05:04:30 37° WSW 05:11:18 10° S
Cosmos 2154 Rocket 4.2 04:59:48 10° N 05:06:04 76° E 05:12:20 10° SSE
ATLAS 3B R/B 3.4 05:01:37 10° NNW 05:08:29 57° NE 05:15:37 10° SE
BREEZE-M DEB (TANK) 4.5 05:08:11 12° SW 05:08:32 12° SSW 05:10:02 10° S
CZ-4B R/B 3.5 05:05:24 10° N 05:09:04 69° WNW 05:12:41 10° SSW
ADEOS 3.5 05:04:28 10° N 05:09:43 75° WNW 05:14:54 10° SSW
Cosmos 1602 3.8 05:07:36 10° NNW 05:11:26 54° W 05:15:14 10° S
FENGYUN 3A 4.3 05:10:31 10° N 05:15:25 35° WNW 05:20:17 10° SW
USA 267 4.3 05:11:43 10° NE 05:17:24 33° N 05:23:06 10° WNW
H-2A R/B 2.6 05:13:59 10° SSW 05:17:46 32° W 05:21:32 10° NNW
Cosmos 1151 Rocket 3.3 05:15:08 10° SSW 05:19:17 46° WNW 05:23:26 10° N
Cosmos 909 Rocket 4.4 05:14:58 11° WSW 05:20:53 46° NW 05:26:57 10° NNE
Cosmos 2219 3.8 05:15:32 10° S 05:21:06 63° ESE 05:26:41 10° NNE
NOSS 0 Rocket 4.0 05:18:19 10° NNW 05:24:24 62° WSW 05:30:29 10° S
Cosmos 2184 Rocket 4.1 05:19:19 10° NNW 05:25:29 55° W 05:31:39 10° SSW
Meteor 2-12 Rocket 4.5 05:19:39 10° N 05:25:51 88° W 05:32:01 10° S
Cosmos 1633 Rocket 3.7 05:24:45 10° NNW 05:28:44 34° W 05:32:40 10° SSW
SKYMED 2 3.7 05:25:07 10° S 05:29:20 51° W 05:33:35 10° NNW
USA-17 4.4 05:28:06 10° SW 05:31:59 81° NW 05:35:09 10° NE
H-2A R/B 2.7 05:30:19 10° N 05:34:15 81° WNW 05:38:06 10° SSW
Cosmos 1242 Rocket 2.4 05:30:57 10° S 05:34:24 89° ESE 05:37:55 10° N
ISS -3.4 05:33:44 10° WNW 05:36:59 47° SW 05:40:13 10° SE
Cosmos 1812 2.6 05:35:46 10° SSW 05:39:36 73° W 05:43:26 10° N
ALOS 3.7 05:37:27 10° NNW 05:40:40 19° WNW 05:43:52 10° WSW
CZ-2C R/B 3.5 05:35:57 10° SSE 05:41:27 58° ENE 05:46:57 10° N
CENTAUR R/B 4.0 05:36:52 10° NW 05:43:50 30° WSW 05:51:08 10° SSW
BREEZE-M DEB (TANK) 4.0 05:42:58 10° NW 05:44:33 18° NNE 05:46:33 10° ENE
Meteor 1-11 Rocket 4.3 05:39:15 10° N 05:44:45 62° ENE 05:50:16 10° SSE
Meteor 1-31 Rocket 3.8 05:42:23 10° N 05:45:40 27° WNW 05:48:55 10° SW
Meteor 1-14 Rocket 4.5 05:41:18 10° NNW 05:46:46 49° W 05:52:18 10° SSW
Cosmos 1954 Rocket 4.1 05:42:31 10° SSW 05:47:44 61° WNW 05:52:56 10° NNE
RESURS DK-1 2.3 05:44:02 10° SSW 05:48:09 84° WNW 05:52:18 10° NNE
SAR-Lupe-4 3.6 05:46:37 10° SSE 05:50:10 88° E 05:53:47 10° NNW
Cosmos 2237 Rocket 2.3 05:46:09 10° NW 05:51:41 55° WSW 05:57:10 10° S
